contact:dominique.lefevre@mio.osupytheas.fr, maurice.libes@osupytheas.fr, didier.mallarino@osupytheas.fr
Project:EMSO http://www.emso-fr.org/EMSO-France
Depth: 2436.0 m
Title:EMSO Ligure Ouest : Data MII capteur CSTAR
DateTime,Latitude,Longitude,Instrument_Serial,Reference_Counts,Signal_Counts,Corrected_Signal_raw_counts,Calculated_Beam_c_inverse_meters,Internal_thermistor_counts
DateTime,Latitude,Longitude,Instrument_Serial,Reference_Counts,Signal_Counts,Corrected_Signal_raw_counts,Calculated_Beam_c_inverse_meters,Internal_thermistor_counts
2023-01-24T13:10:06,42.805,6.029,CST-1368DR,4419,4893,11770,01.131,551
2023-01-24T13:13:08,42.805,6.029,CST-1368DR,4418,4890,11765,01.133,551
2023-01-24T13:16:10,42.805,6.029,CST-1368DR,4418,4891,11765,01.133,551
2023-01-24T13:19:11,42.805,6.029,CST-1368DR,4418,4888,11758,01.135,551
2023-01-24T13:22:13,42.805,6.029,CST-1368DR,4418,4892,11768,01.132,551
2023-01-24T13:25:14,42.805,6.029,CST-1368DR,4418,4890,11764,01.133,551
2023-01-24T13:28:16,42.805,6.029,CST-1368DR,4418,4890,11765,01.133,551
2023-01-24T13:31:17,42.805,6.029,CST-1368DR,4418,4889,11761,01.134,551
2023-01-24T13:34:19,42.805,6.029,CST-1368DR,4418,4890,11764,01.133,551
2023-01-24T13:37:21,42.805,6.029,CST-1368DR,4417,4889,11763,01.133,551
2023-01-24T13:40:22,42.805,6.029,CST-1368DR,4417,4889,11764,01.133,551
2023-01-24T13:43:24,42.805,6.029,CST-1368DR,4417,4893,11775,01.129,551
2023-01-24T13:46:25,42.805,6.029,CST-1368DR,4417,4887,11758,01.135,551
2023-01-24T13:49:27,42.805,6.029,CST-1368DR,4417,4887,11758,01.135,551
2023-01-24T13:52:29,42.805,6.029,CST-1368DR,4417,4887,11759,01.135,551
2023-01-24T13:55:30,42.805,6.029,CST-1368DR,4417,4889,11764,01.133,551
2023-01-24T13:58:32,42.805,6.029,CST-1368DR,4417,4888,11761,01.134,551
2023-01-24T14:01:33,42.805,6.029,CST-1368DR,4417,4885,11755,01.136,551
2023-01-24T14:04:35,42.805,6.029,CST-1368DR,4417,4885,11754,01.136,551
2023-01-24T14:07:36,42.805,6.029,CST-1368DR,4417,4885,11754,01.136,551
2023-01-24T14:10:38,42.805,6.029,CST-1368DR,4417,4887,11760,01.134,551
2023-01-24T14:13:40,42.805,6.029,CST-1368DR,4417,4887,11758,01.135,551
2023-01-24T14:16:41,42.805,6.029,CST-1368DR,4417,4888,11761,01.134,551
2023-01-24T14:19:43,42.805,6.029,CST-1368DR,4416,4882,11750,01.138,551
2023-01-24T14:22:44,42.805,6.029,CST-1368DR,4416,4885,11758,01.135,551
2023-01-24T14:25:46,42.805,6.029,CST-1368DR,4416,4886,11760,01.134,551
2023-01-24T14:28:48,42.805,6.029,CST-1368DR,4416,4882,11750,01.138,551
2023-01-24T14:31:49,42.805,6.029,CST-1368DR,4416,4884,11755,01.136,551
2023-01-24T14:34:51,42.805,6.029,CST-1368DR,4416,4881,11746,01.139,551
2023-01-24T14:37:52,42.805,6.029,CST-1368DR,4416,4886,11759,01.135,551
2023-01-24T14:40:54,42.805,6.029,CST-1368DR,4416,4882,11750,01.138,551
2023-01-24T14:43:55,42.805,6.029,CST-1368DR,4416,4879,11742,01.140,551
2023-01-24T14:46:57,42.805,6.029,CST-1368DR,4416,4884,11755,01.136,551
2023-01-24T14:49:59,42.805,6.029,CST-1368DR,4416,4885,11758,01.135,551
2023-01-24T14:53:00,42.805,6.029,CST-1368DR,4416,4881,11748,01.138,551
2023-01-24T14:56:02,42.805,6.029,CST-1368DR,4416,4884,11754,01.136,551
2023-01-24T14:59:03,42.805,6.029,CST-1368DR,4416,4883,11753,01.137,551
2023-01-24T15:02:05,42.805,6.029,CST-1368DR,4416,4885,11756,01.136,551
2023-01-24T15:05:07,42.805,6.029,CST-1368DR,4416,4884,11754,01.136,551
2023-01-24T15:08:08,42.805,6.029,CST-1368DR,4416,4880,11746,01.139,551
2023-01-24T15:11:10,42.805,6.029,CST-1368DR,4416,4879,11743,01.140,551
2023-01-24T15:14:11,42.805,6.029,CST-1368DR,4416,4885,11757,01.135,551
2023-01-24T15:17:13,42.805,6.029,CST-1368DR,4416,4884,11754,01.136,551
2023-01-24T15:20:15,42.805,6.029,CST-1368DR,4416,4884,11754,01.136,551
2023-01-24T15:23:16,42.805,6.029,CST-1368DR,4416,4885,11756,01.136,551
2023-01-24T15:26:18,42.805,6.029,CST-1368DR,4416,4885,11757,01.135,551
2023-01-24T15:29:19,42.805,6.029,CST-1368DR,4415,4881,11751,01.137,551
2023-01-24T15:32:21,42.805,6.029,CST-1368DR,4415,4879,11745,01.139,551
2023-01-24T15:35:22,42.805,6.029,CST-1368DR,4416,4883,11753,01.137,551
2023-01-24T15:38:24,42.805,6.029,CST-1368DR,4415,4876,11738,01.142,551
2023-01-24T15:41:26,42.805,6.029,CST-1368DR,4415,4882,11751,01.137,551
2023-01-24T15:44:27,42.805,6.029,CST-1368DR,4415,4882,11753,01.137,551
2023-01-24T15:47:29,42.805,6.029,CST-1368DR,4415,4884,11758,01.135,551
2023-01-24T15:50:30,42.805,6.029,CST-1368DR,4415,4881,11749,01.138,551
2023-01-24T15:53:32,42.805,6.029,CST-1368DR,4415,4883,11756,01.136,551
2023-01-24T15:56:34,42.805,6.029,CST-1368DR,4415,4885,11760,01.134,551
2023-01-24T15:59:35,42.805,6.029,CST-1368DR,4415,4888,11767,01.132,551
2023-01-24T16:02:37,42.805,6.029,CST-1368DR,4415,4883,11754,01.136,551
2023-01-24T16:05:38,42.805,6.029,CST-1368DR,4415,4887,11765,01.133,551
2023-01-24T16:08:40,42.805,6.029,CST-1368DR,4415,4886,11761,01.134,551
2023-01-24T16:11:41,42.805,6.029,CST-1368DR,4415,4884,11758,01.135,551
2023-01-24T16:14:43,42.805,6.029,CST-1368DR,4415,4877,11739,01.142,551
2023-01-24T16:17:45,42.805,6.029,CST-1368DR,4415,4916,11834,01.109,551
2023-01-24T16:20:46,42.805,6.029,CST-1368DR,4415,4894,11781,01.127,551
2023-01-24T16:23:48,42.805,6.029,CST-1368DR,4415,4907,11813,01.116,551
2023-01-24T16:26:49,42.805,6.029,CST-1368DR,4415,4912,11824,01.113,551
2023-01-24T16:29:51,42.805,6.029,CST-1368DR,4415,4889,11770,01.131,551
2023-01-24T16:32:53,42.805,6.029,CST-1368DR,4415,4889,11768,01.132,551
2023-01-24T16:35:54,42.805,6.029,CST-1368DR,4415,4890,11773,01.130,551
2023-01-24T16:38:56,42.805,6.029,CST-1368DR,4415,4882,11753,01.137,551
2023-01-24T16:41:57,42.805,6.029,CST-1368DR,4415,4884,11757,01.135,551
2023-01-24T16:44:59,42.805,6.029,CST-1368DR,4415,4888,11767,01.132,551
2023-01-24T16:48:01,42.805,6.029,CST-1368DR,4415,4890,11773,01.130,551
2023-01-24T16:51:02,42.805,6.029,CST-1368DR,4415,4881,11749,01.138,551
2023-01-24T16:54:04,42.805,6.029,CST-1368DR,4415,4881,11750,01.138,551
2023-01-24T16:57:05,42.805,6.029,CST-1368DR,4415,4882,11753,01.137,551
2023-01-24T17:00:07,42.805,6.029,CST-1368DR,4414,4882,11755,01.136,551
2023-01-24T17:03:08,42.805,6.029,CST-1368DR,4414,4882,11755,01.136,551
2023-01-24T17:06:10,42.805,6.029,CST-1368DR,4414,4890,11773,01.130,551
2023-01-24T17:09:12,42.805,6.029,CST-1368DR,4414,4883,11756,01.136,551
2023-01-24T17:12:13,42.805,6.029,CST-1368DR,4414,4883,11757,01.135,551
2023-01-24T17:15:15,42.805,6.029,CST-1368DR,4414,4882,11755,01.136,551
2023-01-24T17:18:16,42.805,6.029,CST-1368DR,4414,4886,11765,01.133,551
2023-01-24T17:21:18,42.805,6.029,CST-1368DR,4414,4881,11753,01.137,551
2023-01-24T17:24:20,42.805,6.029,CST-1368DR,4414,4886,11765,01.133,551
2023-01-24T17:27:21,42.805,6.029,CST-1368DR,4414,4880,11751,01.137,551
2023-01-24T17:30:23,42.805,6.029,CST-1368DR,4414,4884,11761,01.134,551
2023-01-24T17:33:24,42.805,6.029,CST-1368DR,4414,4880,11750,01.138,551
2023-01-24T17:36:26,42.805,6.029,CST-1368DR,4414,4885,11761,01.134,551
2023-01-24T17:39:27,42.805,6.029,CST-1368DR,4414,4887,11768,01.132,551
2023-01-24T17:42:29,42.805,6.029,CST-1368DR,4414,4883,11756,01.136,551
2023-01-24T17:45:31,42.805,6.029,CST-1368DR,4414,4886,11765,01.133,551
2023-01-24T17:48:32,42.805,6.029,CST-1368DR,4414,4884,11761,01.134,551
2023-01-24T17:51:34,42.805,6.029,CST-1368DR,4414,4885,11762,01.134,551
2023-01-24T17:54:35,42.805,6.029,CST-1368DR,4414,4884,11761,01.134,551
2023-01-24T17:57:37,42.805,6.029,CST-1368DR,4414,4882,11756,01.136,551
2023-01-24T18:00:39,42.805,6.029,CST-1368DR,4414,4882,11755,01.136,551
2023-01-24T18:03:40,42.805,6.029,CST-1368DR,4414,4886,11765,01.133,551
2023-01-24T18:06:42,42.805,6.029,CST-1368DR,4414,4885,11762,01.134,551
2023-01-24T18:09:43,42.805,6.029,CST-1368DR,4414,4885,11762,01.134,551
2023-01-24T18:12:45,42.805,6.029,CST-1368DR,4414,4880,11750,01.138,551
2023-01-24T18:15:46,42.805,6.029,CST-1368DR,4414,4879,11748,01.138,551
2023-01-24T18:18:48,42.805,6.029,CST-1368DR,4414,4886,11764,01.133,551
2023-01-24T18:21:50,42.805,6.029,CST-1368DR,4414,4881,11752,01.137,551
2023-01-24T18:24:51,42.805,6.029,CST-1368DR,4414,4883,11757,01.135,551
2023-01-24T18:27:53,42.805,6.029,CST-1368DR,4414,4879,11749,01.138,551
2023-01-24T18:30:54,42.805,6.029,CST-1368DR,4414,4884,11759,01.135,551
2023-01-24T18:33:56,42.805,6.029,CST-1368DR,4413,4880,11752,01.137,551
2023-01-24T18:36:58,42.805,6.029,CST-1368DR,4413,4879,11751,01.137,551
2023-01-24T18:39:59,42.805,6.029,CST-1368DR,4413,4881,11755,01.136,551
2023-01-24T18:43:01,42.805,6.029,CST-1368DR,4413,4883,11760,01.134,551
2023-01-24T18:46:02,42.805,6.029,CST-1368DR,4413,4880,11754,01.136,551
2023-01-24T18:49:04,42.805,6.029,CST-1368DR,4413,4881,11755,01.136,551
2023-01-24T18:52:06,42.805,6.029,CST-1368DR,4413,4879,11751,01.137,551
2023-01-24T18:55:07,42.805,6.029,CST-1368DR,4413,4878,11749,01.138,551
2023-01-24T18:58:09,42.805,6.029,CST-1368DR,4413,4880,11752,01.137,551
2023-01-24T19:01:10,42.805,6.029,CST-1368DR,4413,4885,11766,01.132,551
2023-01-24T19:04:12,42.805,6.029,CST-1368DR,4413,4880,11752,01.137,551
2023-01-24T19:07:13,42.805,6.029,CST-1368DR,4413,4880,11754,01.136,551
2023-01-24T19:10:15,42.805,6.029,CST-1368DR,4413,4883,11759,01.135,551
2023-01-24T19:13:17,42.805,6.029,CST-1368DR,4413,4886,11767,01.132,551
2023-01-24T19:16:18,42.805,6.029,CST-1368DR,4413,4880,11754,01.136,551
2023-01-24T19:19:20,42.805,6.029,CST-1368DR,4413,4878,11747,01.139,551
2023-01-24T19:22:21,42.805,6.029,CST-1368DR,4413,4882,11758,01.135,551
2023-01-24T19:25:23,42.805,6.029,CST-1368DR,4413,4881,11756,01.136,551
2023-01-24T19:28:25,42.805,6.029,CST-1368DR,4413,4889,11773,01.130,551
2023-01-24T19:31:26,42.805,6.029,CST-1368DR,4413,4891,11780,01.128,551
2023-01-24T19:34:28,42.805,6.029,CST-1368DR,4413,4884,11762,01.134,551
2023-01-24T19:37:29,42.805,6.029,CST-1368DR,4413,4872,11732,01.144,551
2023-01-24T19:40:31,42.805,6.029,CST-1368DR,4413,4873,11736,01.143,551
2023-01-24T19:43:32,42.805,6.029,CST-1368DR,4413,4884,11763,01.133,551
2023-01-24T19:46:34,42.805,6.029,CST-1368DR,4413,4874,11739,01.142,551
2023-01-24T19:49:36,42.805,6.029,CST-1368DR,4413,4874,11737,01.142,551
2023-01-24T19:52:37,42.805,6.029,CST-1368DR,4413,4872,11733,01.144,551
2023-01-24T19:55:39,42.805,6.029,CST-1368DR,4413,4874,11738,01.142,551
2023-01-24T19:58:40,42.805,6.029,CST-1368DR,4413,4878,11747,01.139,551
2023-01-24T20:01:42,42.805,6.029,CST-1368DR,4413,4879,11750,01.138,551
2023-01-24T20:04:44,42.805,6.029,CST-1368DR,4413,4876,11742,01.140,551
2023-01-24T20:07:45,42.805,6.029,CST-1368DR,4413,4882,11758,01.135,551
2023-01-24T20:10:47,42.805,6.029,CST-1368DR,4413,4878,11747,01.139,551
2023-01-24T20:13:48,42.805,6.029,CST-1368DR,4413,4877,11745,01.139,551
2023-01-24T20:16:50,42.805,6.029,CST-1368DR,4413,4881,11756,01.136,551
2023-01-24T20:19:51,42.805,6.029,CST-1368DR,4413,4876,11742,01.140,551
2023-01-24T20:22:53,42.805,6.029,CST-1368DR,4413,4870,11729,01.145,551
2023-01-24T20:25:55,42.805,6.029,CST-1368DR,4413,4873,11737,01.142,551
2023-01-24T20:28:56,42.805,6.029,CST-1368DR,4413,4900,11800,01.121,551
2023-01-24T20:31:58,42.805,6.029,CST-1368DR,4413,4930,11872,01.096,551
2023-01-24T20:34:59,42.805,6.029,CST-1368DR,4413,4936,11887,01.091,551
2023-01-24T20:38:01,42.805,6.029,CST-1368DR,4413,4932,11878,01.094,551
2023-01-24T20:41:03,42.805,6.029,CST-1368DR,4413,4933,11881,01.093,551
2023-01-24T20:44:04,42.805,6.029,CST-1368DR,4413,4936,11887,01.091,551
2023-01-24T20:47:06,42.805,6.029,CST-1368DR,4413,4934,11882,01.093,551
2023-01-24T20:50:07,42.805,6.029,CST-1368DR,4413,4933,11881,01.093,551
2023-01-24T20:53:09,42.805,6.029,CST-1368DR,4413,4933,11879,01.094,551
2023-01-24T20:56:10,42.805,6.029,CST-1368DR,4413,4932,11878,01.094,551
2023-01-24T20:59:12,42.805,6.029,CST-1368DR,4413,4932,11879,01.094,551
2023-01-24T21:02:14,42.805,6.029,CST-1368DR,4413,4932,11877,01.095,551
2023-01-24T21:05:15,42.805,6.029,CST-1368DR,4413,4936,11888,01.091,551
2023-01-24T21:08:17,42.805,6.029,CST-1368DR,4413,4935,11885,01.092,551
2023-01-24T21:11:18,42.805,6.029,CST-1368DR,4413,4935,11886,01.092,551
2023-01-24T21:14:20,42.805,6.029,CST-1368DR,4413,4932,11879,01.094,551
2023-01-24T21:17:22,42.805,6.029,CST-1368DR,4413,4935,11885,01.092,551
2023-01-24T21:20:23,42.805,6.029,CST-1368DR,4413,4935,11886,01.092,551
2023-01-24T21:23:25,42.805,6.029,CST-1368DR,4413,4934,11884,01.092,551
2023-01-24T21:26:26,42.805,6.029,CST-1368DR,4413,4935,11886,01.092,551
2023-01-24T21:29:28,42.805,6.029,CST-1368DR,4413,4936,11887,01.091,551
2023-01-24T21:32:29,42.805,6.029,CST-1368DR,4413,4936,11888,01.091,551
2023-01-24T21:35:31,42.805,6.029,CST-1368DR,4413,4936,11888,01.091,551
2023-01-24T21:38:33,42.805,6.029,CST-1368DR,4413,4935,11885,01.092,551
2023-01-24T21:41:34,42.805,6.029,CST-1368DR,4412,4935,11887,01.091,550
2023-01-24T21:44:36,42.805,6.029,CST-1368DR,4412,4936,11891,01.090,551
2023-01-24T21:47:37,42.805,6.029,CST-1368DR,4412,4935,11887,01.091,551
2023-01-24T21:50:39,42.805,6.029,CST-1368DR,4412,4938,11894,01.089,551
2023-01-24T21:53:41,42.805,6.029,CST-1368DR,4412,4936,11889,01.091,551
2023-01-24T21:56:42,42.805,6.029,CST-1368DR,4412,4936,11890,01.090,551
2023-01-24T21:59:44,42.805,6.029,CST-1368DR,4412,4935,11887,01.091,551
2023-01-24T22:02:45,42.805,6.029,CST-1368DR,4412,4936,11889,01.091,551
2023-01-24T22:05:47,42.805,6.029,CST-1368DR,4412,4936,11890,01.090,551
2023-01-24T22:08:48,42.805,6.029,CST-1368DR,4412,4936,11889,01.091,551
2023-01-24T22:11:50,42.805,6.029,CST-1368DR,4412,4935,11889,01.091,551
2023-01-24T22:14:52,42.805,6.029,CST-1368DR,4412,4934,11885,01.092,551
2023-01-24T22:17:53,42.805,6.029,CST-1368DR,4412,4933,11882,01.093,551
2023-01-24T22:20:55,42.805,6.029,CST-1368DR,4412,4934,11886,01.092,551
2023-01-24T22:23:56,42.805,6.029,CST-1368DR,4412,4936,11889,01.091,551
2023-01-24T22:26:58,42.805,6.029,CST-1368DR,4412,4937,11892,01.090,551
2023-01-24T22:30:00,42.805,6.029,CST-1368DR,4412,4936,11890,01.090,551
2023-01-24T22:33:01,42.805,6.029,CST-1368DR,4412,4937,11892,01.090,551
2023-01-24T22:36:03,42.805,6.029,CST-1368DR,4412,4936,11890,01.090,551
2023-01-24T22:39:04,42.805,6.029,CST-1368DR,4412,4936,11891,01.090,551
2023-01-24T22:42:06,42.805,6.029,CST-1368DR,4412,4937,11892,01.090,551
2023-01-24T22:45:08,42.805,6.029,CST-1368DR,4412,4937,11892,01.090,551
2023-01-24T22:48:09,42.805,6.029,CST-1368DR,4412,4937,11892,01.090,551
2023-01-24T22:51:11,42.805,6.029,CST-1368DR,4412,4938,11894,01.089,551
2023-01-24T22:54:12,42.805,6.029,CST-1368DR,4412,4936,11891,01.090,551
2023-01-24T22:57:14,42.805,6.029,CST-1368DR,4412,4937,11892,01.090,551
2023-01-24T23:00:15,42.805,6.029,CST-1368DR,4412,4936,11890,01.090,551
2023-01-24T23:03:17,42.805,6.029,CST-1368DR,4412,4936,11890,01.090,551
2023-01-24T23:06:19,42.805,6.029,CST-1368DR,4412,4936,11890,01.090,551
2023-01-24T23:09:20,42.805,6.029,CST-1368DR,4412,4937,11892,01.090,551
2023-01-24T23:12:22,42.805,6.029,CST-1368DR,4412,4936,11890,01.090,551
2023-01-24T23:15:23,42.805,6.029,CST-1368DR,4412,4936,11891,01.090,551
2023-01-24T23:18:25,42.805,6.029,CST-1368DR,4412,4936,11890,01.090,550
2023-01-24T23:21:27,42.805,6.029,CST-1368DR,4412,4936,11889,01.091,551
2023-01-24T23:24:28,42.805,6.029,CST-1368DR,4412,4936,11891,01.090,551
2023-01-24T23:27:30,42.805,6.029,CST-1368DR,4412,4936,11890,01.090,551
2023-01-24T23:30:31,42.805,6.029,CST-1368DR,4412,4936,11890,01.090,551
2023-01-24T23:33:33,42.805,6.029,CST-1368DR,4412,4936,11890,01.090,551
2023-01-24T23:36:34,42.805,6.029,CST-1368DR,4412,4936,11890,01.090,551
2023-01-24T23:39:36,42.805,6.029,CST-1368DR,4412,4933,11884,01.092,551
2023-01-24T23:42:38,42.805,6.029,CST-1368DR,4412,4933,11884,01.092,551
2023-01-24T23:45:39,42.805,6.029,CST-1368DR,4412,4935,11889,01.091,551
2023-01-24T23:48:41,42.805,6.029,CST-1368DR,4412,4936,11889,01.091,551
2023-01-24T23:51:42,42.805,6.029,CST-1368DR,4412,4936,11889,01.091,551
2023-01-24T23:54:44,42.805,6.029,CST-1368DR,4412,4936,11889,01.091,551
2023-01-24T23:57:46,42.805,6.029,CST-1368DR,4412,4935,11888,01.091,551
